Regional Weather Roundup
Issued by NWS

Home | Current Version | Previous Version | Graphics & Text | Print | Product List | Glossary On
Versions: 1 2 3 4 5 6 7 8 9 10 11 12 13 14 15 16 17 18 19 20 21 22 23 24 25 26 27 28 29 30 31 32 33 34 35 36 37 38 39 40 41 42 43 44 45 46 47 48 49 50
000
ASUS44 KMEG 151900
RWRTN
TENNESSEE HOURLY STATE WEATHER ROUNDUP
NATIONAL WEATHER SERVICE MEMPHIS TN
200 PM CDT TUE AUG 15 2017

TNZ002-004-019-021-049-052-054-088>092-152000-
WEST TENNESSEE

CITY           SKY/WX    TMP DP  RH WIND       PRES   REMARKS
MEMPHIS INTL   PTSUNNY   82  74  76 E6        29.93F
NWS MEMPHIS      N/A     83 N/A N/A MISG        N/A
JACKSON        CLOUDY    74  74 100 CALM      29.95F
$$

TNZ008-025-027-028-033-062-065-066-152000-
NORTH MIDDLE TENNESSEE

CITY           SKY/WX    TMP DP  RH WIND       PRES   REMARKS
NASHVILLE      PTSUNNY   87  71  58 SW6       29.97F HX  93
CLARKSVILLE    MOSUNNY   85  71  63 SW6       29.96F HX  90
SMYRNA         CLOUDY    85  73  67 N9        29.97F HX  91
CROSSVILLE     MOSUNNY   81  67  62 W9        30.03F
$$

TNZ061-075-076-078-094-096-097-152000-
SOUTH MIDDLE TENNESSEE

CITY           SKY/WX    TMP DP  RH WIND       PRES   REMARKS
TULLAHOMA      PTSUNNY   84  70  61 NW6       29.99S
WINCHESTER     MOSUNNY   86  73  66 W6        29.97F HX  93
$$

TNZ017-018-042-046-047-152000-
NORTHEAST TENNESSEE

CITY           SKY/WX    TMP DP  RH WIND       PRES   REMARKS
TRI CITIES     PTSUNNY   77  73  87 S7        29.98F
$$

TNZ012-013-036-069-073-074-152000-
CENTRAL EAST TENNESSEE

CITY           SKY/WX    TMP DP  RH WIND       PRES   REMARKS
KNOXVILLE      PTSUNNY   84  69  60 W5        29.96F
OAK RIDGE      MOSUNNY   87  69  54 VRB3      29.97F HX  91
GATLINBURG     SUNNY     90  70  51 SW10      29.95F HX  95
$$

TNZ083-085-099-152000-
SOUTHEAST TENNESSEE

CITY           SKY/WX    TMP DP  RH WIND       PRES   REMARKS
CHATTANOOGA    PTSUNNY   88  70  55 VRB3      29.95F HX  93
$$

SKY/WX REPORTED AS FAIR MEANS FEW OR NO CLOUDS BELOW
12 THOUSAND FEET.





USA.gov is the U.S. government's official web portal to all federal, state and local government web resources and services.